| time (UTC) | temp F | wind direction | speed MPH | gust MPH | rain 1hr in | rain 24hr in | rain mn in | humidity % | barometer mb |
| 20260505101746 | 38 | 332 | 1.0 | 2.0 | 0.00 | 0.00 | 0.00 | 74 | 1005.3 |
| 20260505101241 | 38 | 339 | 1.0 | 1.0 | 0.00 | 0.00 | 0.00 | 77 | 1005.3 |
| 20260505100738 | 37 | 342 | 1.0 | 1.0 | 0.00 | 0.00 | 0.00 | 75 | 1005.0 |
| 20260505100234 | 37 | 344 | 0.0 | 1.0 | 0.00 | 0.00 | 0.00 | 75 | 1004.9 |
| 20260505095730 | 37 | 345 | 0.0 | 1.0 | 0.00 | 0.00 | 0.00 | 75 | 1005.1 |
| 20260505095228 | 37 | 344 | 1.0 | 1.0 | 0.00 | 0.00 | 0.00 | 78 | 1004.8 |
| 20260505094723 | 37 | 352 | 0.0 | 0.0 | 0.00 | 0.00 | 0.00 | 74 | 1004.9 |
| 20260505094220 | 37 | 352 | 0.0 | 1.0 | 0.00 | 0.00 | 0.00 | 74 | 1005.0 |
| 20260505093716 | 37 | 355 | 0.0 | 1.0 | 0.00 | 0.00 | 0.00 | 73 | 1004.9 |
| 20260505093214 | 37 | 355 | 0.0 | 0.0 | 0.00 | 0.00 | 0.00 | 73 | 1004.7 |
| 20260505092710 | 37 | 355 | 0.0 | 0.0 | 0.00 | 0.00 | 0.00 | 73 | 1004.7 |
| 20260505092210 | 37 | 355 | 0.0 | 0.0 | 0.00 | 0.00 | 0.00 | 73 | 1004.5 |
| 20260505091706 | 37 | 355 | 0.0 | 0.0 | 0.00 | 0.00 | 0.00 | 73 | 1004.7 |
| 20260505091204 | 37 | 354 | 0.0 | 0.0 | 0.00 | 0.00 | 0.00 | 73 | 1004.7 |
| 20260505090701 | 37 | 354 | 0.0 | 0.0 | 0.00 | 0.00 | 0.00 | 72 | 1004.7 |
| 20260505090159 | 37 | 354 | 0.0 | 0.0 | 0.00 | 0.00 | 0.00 | 72 | 1004.5 |
| 20260505085657 | 37 | 354 | 0.0 | 0.0 | 0.00 | 0.00 | 0.00 | 73 | 1004.5 |
| 20260505085155 | 37 | 354 | 0.0 | 1.0 | 0.00 | 0.00 | 0.00 | 72 | 1004.2 |
| 20260505084652 | 37 | 354 | 0.0 | 0.0 | 0.00 | 0.00 | 0.00 | 72 | 1004.2 |
| 20260505084151 | 36 | 354 | 0.0 | 0.0 | 0.00 | 0.00 | 0.00 | 73 | 1004.2 |
| 20260505083647 | 36 | 354 | 1.0 | 1.0 | 0.00 | 0.00 | 0.00 | 73 | 1004.3 |
| 20260505083144 | 37 | 354 | 0.0 | 0.0 | 0.00 | 0.00 | 0.00 | 72 | 1004.2 |
| 20260505082640 | 37 | 353 | 1.0 | 1.0 | 0.00 | 0.00 | 0.00 | 71 | 1004.5 |
| 20260505082137 | 37 | 355 | 0.0 | 1.0 | 0.00 | 0.00 | 0.00 | 71 | 1004.3 |
| 20260505081633 | 37 | 348 | 1.0 | 1.0 | 0.00 | 0.00 | 0.00 | 71 | 1004.3 |
| 20260505081131 | 37 | 353 | 0.0 | 0.0 | 0.00 | 0.00 | 0.00 | 71 | 1004.3 |
| 20260505080627 | 37 | 349 | 0.0 | 1.0 | 0.00 | 0.00 | 0.00 | 71 | 1004.2 |
| 20260505080123 | 37 | 351 | 1.0 | 1.0 | 0.00 | 0.00 | 0.00 | 70 | 1004.2 |
| 20260505075620 | 37 | 357 | 0.0 | 0.0 | 0.00 | 0.00 | 0.00 | 70 | 1004.3 |
| 20260505075116 | 37 | 346 | 0.0 | 0.0 | 0.00 | 0.00 | 0.00 | 69 | 1004.5 |
| 20260505074613 | 37 | 354 | 0.0 | 0.0 | 0.00 | 0.00 | 0.00 | 69 | 1004.3 |
| 20260505074110 | 37 | 351 | 0.0 | 0.0 | 0.00 | 0.00 | 0.00 | 69 | 1004.1 |
| 20260505073608 | 37 | 349 | 0.0 | 0.0 | 0.00 | 0.00 | 0.00 | 69 | 1004.5 |
| 20260505073106 | 37 | 349 | 0.0 | 1.0 | 0.00 | 0.00 | 0.00 | 68 | 1004.3 |
| 20260505072601 | 37 | 349 | 0.0 | 0.0 | 0.00 | 0.00 | 0.00 | 68 | 1004.2 |
| 20260505072058 | 37 | 348 | 0.0 | 0.0 | 0.00 | 0.00 | 0.00 | 67 | 1004.3 |
| 20260505071554 | 37 | 349 | 1.0 | 1.0 | 0.00 | 0.00 | 0.00 | 66 | 1004.1 |
| 20260505071052 | 37 | 355 | 1.0 | 1.0 | 0.00 | 0.00 | 0.00 | 66 | 1004.2 |
| 20260505070549 | 38 | 349 | 0.0 | 0.0 | 0.00 | 0.00 | 0.00 | 65 | 1004.2 |
| 20260505070045 | 38 | 351 | 0.0 | 1.0 | 0.00 | 0.00 | 0.00 | 65 | 1004.5 |
| 20260505065541 | 38 | 345 | 1.0 | 2.0 | 0.00 | 0.00 | 0.00 | 64 | 1004.3 |
| 20260505065038 | 38 | 350 | 0.0 | 1.0 | 0.00 | 0.00 | 0.00 | 64 | 1004.2 |
| 20260505064534 | 38 | 349 | 0.0 | 0.0 | 0.00 | 0.00 | 0.00 | 64 | 1004.5 |
| 20260505064033 | 38 | 343 | 1.0 | 1.0 | 0.00 | 0.00 | 0.00 | 63 | 1004.2 |
| 20260505063530 | 39 | 352 | 0.0 | 0.0 | 0.00 | 0.00 | 0.00 | 64 | 1004.5 |
| 20260505063025 | 39 | 347 | 0.0 | 1.0 | 0.00 | 0.00 | 0.00 | 64 | 1004.2 |
| 20260505062523 | 39 | 348 | 1.0 | 1.0 | 0.00 | 0.00 | 0.00 | 63 | 1004.5 |
| 20260505062020 | 39 | 350 | 2.0 | 2.0 | 0.00 | 0.00 | 0.00 | 66 | 1004.5 |
| 20260505061517 | 39 | 343 | 0.0 | 0.0 | 0.00 | 0.00 | 0.00 | 65 | 1004.3 |
| 20260505061015 | 39 | 351 | 0.0 | 0.0 | 0.00 | 0.00 | 0.00 | 62 | 1004.1 |
| 20260505060512 | 39 | 348 | 1.0 | 2.0 | 0.00 | 0.00 | 0.00 | 62 | 1004.2 |
| 20260505060009 | 39 | 356 | 0.0 | 0.0 | 0.00 | 0.00 | 0.00 | 66 | 1004.2 |
| 20260505055504 | 39 | 355 | 1.0 | 1.0 | 0.00 | 0.00 | 0.00 | 62 | 1004.1 |
| 20260505055001 | 39 | 344 | 1.0 | 1.0 | 0.00 | 0.00 | 0.00 | 61 | 1004.2 |
| 20260505054458 | 40 | 347 | 1.0 | 1.0 | 0.00 | 0.00 | 0.00 | 63 | 1004.0 |
| 20260505053956 | 40 | 346 | 0.0 | 1.0 | 0.00 | 0.00 | 0.00 | 60 | 1003.8 |
| 20260505053453 | 40 | 317 | 2.0 | 2.0 | 0.00 | 0.00 | 0.00 | 60 | 1003.9 |
| 20260505052950 | 40 | 354 | 0.0 | 0.0 | 0.00 | 0.00 | 0.00 | 60 | 1004.0 |
| 20260505052447 | 40 | 353 | 1.0 | 1.0 | 0.00 | 0.00 | 0.00 | 59 | 1003.9 |
| 20260505051944 | 40 | 332 | 2.0 | 2.0 | 0.00 | 0.00 | 0.00 | 58 | 1003.6 |
| 20260505051441 | 40 | 341 | 1.0 | 1.0 | 0.00 | 0.00 | 0.00 | 60 | 1003.7 |
| 20260505050939 | 40 | 346 | 0.0 | 1.0 | 0.00 | 0.00 | 0.00 | 58 | 1003.6 |
| 20260505050437 | 40 | 346 | 1.0 | 1.0 | 0.00 | 0.00 | 0.00 | 57 | 1003.4 |
| 20260505041405 | 42 | 342 | 1.0 | 1.0 | 0.00 | 0.00 | 0.00 | 54 | 1003.3 |
| 20260505040902 | 42 | 1 | 2.0 | 2.0 | 0.00 | 0.00 | 0.00 | 54 | 1003.2 |
| 20260505040359 | 42 | 7 | 0.0 | 1.0 | 0.00 | 0.00 | 0.00 | 57 | 1003.3 |
| 20260505035856 | 42 | 335 | 2.0 | 2.0 | 0.00 | 0.00 | 0.00 | 57 | 1003.2 |
| 20260505035352 | 43 | 349 | 2.0 | 3.0 | 0.00 | 0.00 | 0.00 | 58 | 1003.0 |
| 20260505034849 | 43 | 329 | 0.0 | 2.0 | 0.00 | 0.00 | 0.00 | 59 | 1003.1 |
| 20260505034346 | 43 | 351 | 1.0 | 1.0 | 0.00 | 0.00 | 0.00 | 58 | 1003.0 |
| 20260505033843 | 43 | 342 | 1.0 | 2.0 | 0.00 | 0.00 | 0.00 | 58 | 1003.2 |
| 20260505033339 | 43 | 304 | 3.0 | 5.0 | 0.00 | 0.00 | 0.00 | 58 | 1003.0 |
| 20260505032838 | 43 | 309 | 3.0 | 3.0 | 0.00 | 0.00 | 0.00 | 56 | 1003.1 |
| 20260505032334 | 43 | 306 | 3.0 | 5.0 | 0.00 | 0.00 | 0.00 | 60 | 1003.1 |
| 20260505031831 | 44 | 341 | 3.0 | 6.0 | 0.00 | 0.00 | 0.00 | 60 | 1003.2 |
| 20260505031327 | 44 | 349 | 3.0 | 5.0 | 0.00 | 0.00 | 0.00 | 59 | 1003.2 |
| 20260505030825 | 44 | 358 | 2.0 | 3.0 | 0.00 | 0.00 | 0.00 | 62 | 1002.9 |
| 20260505030321 | 44 | 344 | 1.0 | 1.0 | 0.00 | 0.00 | 0.00 | 66 | 1003.1 |
| 20260505025816 | 44 | 344 | 0.0 | 1.0 | 0.00 | 0.00 | 0.00 | 63 | 1002.8 |
| 20260505025315 | 44 | 352 | 1.0 | 1.0 | 0.00 | 0.00 | 0.00 | 63 | 1002.9 |
| 20260505024813 | 44 | 343 | 0.0 | 1.0 | 0.00 | 0.00 | 0.00 | 63 | 1003.0 |
| 20260505024310 | 44 | 348 | 3.0 | 3.0 | 0.00 | 0.00 | 0.00 | 64 | 1002.7 |
| 20260505023807 | 44 | 340 | 1.0 | 2.0 | 0.00 | 0.00 | 0.00 | 63 | 1002.9 |
| 20260505023304 | 44 | 4 | 2.0 | 3.0 | 0.00 | 0.00 | 0.00 | 62 | 1002.9 |
| 20260505022801 | 44 | 310 | 2.0 | 2.0 | 0.00 | 0.00 | 0.00 | 62 | 1002.6 |
| 20260505022258 | 44 | 349 | 1.0 | 1.0 | 0.00 | 0.00 | 0.00 | 61 | 1002.7 |
| 20260505021755 | 44 | 324 | 2.0 | 2.0 | 0.00 | 0.00 | 0.00 | 60 | 1002.2 |
| 20260505021252 | 45 | 348 | 0.0 | 1.0 | 0.00 | 0.00 | 0.00 | 60 | 1002.5 |
| 20260505020748 | 45 | 0 | 2.0 | 3.0 | 0.00 | 0.00 | 0.00 | 58 | 1002.4 |
| 20260505020243 | 45 | 343 | 1.0 | 2.0 | 0.00 | 0.00 | 0.00 | 60 | 1002.4 |
| 20260505015740 | 45 | 346 | 3.0 | 3.0 | 0.00 | 0.00 | 0.00 | 57 | 1001.9 |
| 20260505015237 | 45 | 332 | 2.0 | 3.0 | 0.00 | 0.00 | 0.00 | 58 | 1002.1 |
| 20260505014734 | 45 | 344 | 0.0 | 1.0 | 0.00 | 0.00 | 0.00 | 56 | 1001.7 |
| 20260505014232 | 46 | 345 | 1.0 | 1.0 | 0.00 | 0.00 | 0.00 | 57 | 1001.8 |
| 20260505013728 | 46 | 352 | 2.0 | 2.0 | 0.00 | 0.00 | 0.00 | 55 | 1001.8 |
| 20260505013225 | 46 | 351 | 2.0 | 2.0 | 0.00 | 0.00 | 0.00 | 57 | 1001.4 |
| 20260505012724 | 46 | 347 | 1.0 | 1.0 | 0.00 | 0.00 | 0.00 | 55 | 1001.3 |
| 20260505012221 | 46 | 2 | 2.0 | 2.0 | 0.00 | 0.00 | 0.00 | 55 | 1001.4 |
| 20260505011716 | 47 | 349 | 1.0 | 1.0 | 0.00 | 0.00 | 0.00 | 55 | 1001.2 |
| 20260505011214 | 47 | 356 | 0.0 | 0.0 | 0.00 | 0.00 | 0.00 | 54 | 1001.1 |
| 20260505010709 | 47 | 344 | 1.0 | 1.0 | 0.00 | 0.00 | 0.00 | 54 | 1001.0 |
| 20260505010206 | 48 | 346 | 1.0 | 2.0 | 0.00 | 0.00 | 0.00 | 56 | 1001.1 |
| 20260505005702 | 48 | 344 | 1.0 | 1.0 | 0.00 | 0.00 | 0.00 | 55 | 1001.1 |
| 20260505005159 | 48 | 349 | 0.0 | 1.0 | 0.00 | 0.00 | 0.00 | 54 | 1000.8 |
| 20260505004656 | 48 | 9 | 3.0 | 3.0 | 0.00 | 0.00 | 0.00 | 53 | 1000.8 |
| 20260505004153 | 49 | 3 | 3.0 | 3.0 | 0.00 | 0.00 | 0.00 | 55 | 1000.9 |
| 20260505003650 | 49 | 352 | 1.0 | 1.0 | 0.00 | 0.00 | 0.00 | 54 | 1000.6 |
| 20260505003147 | 49 | 348 | 0.0 | 1.0 | 0.00 | 0.00 | 0.00 | 56 | 1000.5 |
| 20260505002643 | 49 | 349 | 1.0 | 1.0 | 0.00 | 0.00 | 0.00 | 54 | 1000.7 |
| 20260505002142 | 50 | 336 | 1.0 | 2.0 | 0.00 | 0.00 | 0.00 | 53 | 1000.6 |
| 20260505001638 | 50 | 356 | 1.0 | 1.0 | 0.00 | 0.00 | 0.00 | 55 | 1000.4 |
| 20260505001136 | 50 | 1 | 1.0 | 2.0 | 0.00 | 0.00 | 0.00 | 53 | 1000.5 |
| 20260505000633 | 51 | 4 | 3.0 | 3.0 | 0.00 | 0.00 | 0.00 | 51 | 1000.0 |
| 20260505000131 | 51 | 7 | 3.0 | 5.0 | 0.00 | 0.00 | 0.00 | 51 | 1000.0 |
| 20260504235627 | 52 | 335 | 3.0 | 5.0 | 0.00 | 0.00 | 0.00 | 51 | 999.7 |
| 20260504235124 | 52 | 336 | 3.0 | 6.0 | 0.00 | 0.00 | 0.00 | 54 | 999.7 |
| 20260504234621 | 52 | 356 | 3.0 | 3.0 | 0.00 | 0.00 | 0.00 | 51 | 999.5 |
| 20260504234118 | 53 | 0 | 4.0 | 6.0 | 0.00 | 0.00 | 0.00 | 50 | 999.6 |
| 20260504233614 | 53 | 345 | 1.0 | 1.0 | 0.00 | 0.00 | 0.00 | 50 | 999.6 |
| 20260504233110 | 54 | 314 | 2.0 | 2.0 | 0.00 | 0.00 | 0.00 | 49 | 999.4 |
| 20260504232607 | 54 | 352 | 1.0 | 2.0 | 0.00 | 0.00 | 0.00 | 49 | 999.3 |
| 20260504232105 | 54 | 345 | 1.0 | 1.0 | 0.00 | 0.00 | 0.00 | 48 | 999.2 |
| 20260504231601 | 55 | 341 | 3.0 | 5.0 | 0.00 | 0.00 | 0.00 | 48 | 999.3 |
| 20260504231057 | 55 | 355 | 2.0 | 2.0 | 0.00 | 0.00 | 0.00 | 48 | 999.2 |
| 20260504230553 | 55 | 342 | 1.0 | 1.0 | 0.00 | 0.00 | 0.00 | 47 | 999.3 |
| 20260504230053 | 55 | 344 | 1.0 | 1.0 | 0.00 | 0.00 | 0.00 | 46 | 998.9 |
| 20260504225549 | 56 | 329 | 2.0 | 3.0 | 0.00 | 0.00 | 0.00 | 46 | 999.0 |
| 20260504225046 | 57 | 5 | 2.0 | 3.0 | 0.00 | 0.00 | 0.00 | 44 | 998.9 |
| 20260504224543 | 57 | 336 | 2.0 | 2.0 | 0.00 | 0.00 | 0.00 | 43 | 998.6 |
| 20260504224040 | 57 | 351 | 3.0 | 5.0 | 0.00 | 0.00 | 0.00 | 45 | 998.7 |
| 20260504223537 | 57 | 345 | 1.0 | 1.0 | 0.00 | 0.00 | 0.00 | 45 | 998.5 |
| 20260504223033 | 57 | 339 | 1.0 | 2.0 | 0.00 | 0.00 | 0.00 | 47 | 998.4 |
| 20260504222530 | 58 | 338 | 3.0 | 3.0 | 0.00 | 0.00 | 0.00 | 44 | 998.1 |
| 20260504222027 | 58 | 359 | 2.0 | 2.0 | 0.00 | 0.00 | 0.00 | 44 | 997.9 |
| 20260504221524 | 58 | 339 | 2.0 | 2.0 | 0.00 | 0.00 | 0.00 | 45 | 998.2 |
| 20260504221021 | 59 | 303 | 1.0 | 2.0 | 0.00 | 0.00 | 0.00 | 46 | 997.6 |
| 20260504220518 | 59 | 353 | 0.0 | 1.0 | 0.00 | 0.00 | 0.00 | 45 | 997.7 |
| 20260504220015 | 59 | 355 | 1.0 | 1.0 | 0.00 | 0.00 | 0.00 | 43 | 997.5 |
| 20260504215511 | 59 | 357 | 0.0 | 1.0 | 0.00 | 0.00 | 0.00 | 44 | 997.4 |
| 20260504215009 | 58 | 349 | 2.0 | 2.0 | 0.00 | 0.00 | 0.00 | 43 | 997.6 |
| 20260504214504 | 58 | 275 | 3.0 | 5.0 | 0.00 | 0.00 | 0.00 | 49 | 997.4 |
| 20260504214001 | 58 | 313 | 3.0 | 3.0 | 0.00 | 0.00 | 0.00 | 49 | 997.3 |
| 20260504213457 | 58 | 345 | 1.0 | 2.0 | 0.00 | 0.00 | 0.00 | 50 | 997.3 |
| 20260504212955 | 59 | 324 | 2.0 | 3.0 | 0.00 | 0.00 | 0.00 | 50 | 997.4 |
| 20260504212450 | 58 | 254 | 5.0 | 7.0 | 0.00 | 0.00 | 0.00 | 49 | 997.2 |
| 20260504211948 | 58 | 355 | 3.0 | 3.0 | 0.00 | 0.00 | 0.00 | 49 | 997.0 |
| 20260504211444 | 59 | 311 | 5.0 | 8.0 | 0.00 | 0.00 | 0.00 | 49 | 997.2 |
| 20260504210942 | 59 | 258 | 5.0 | 6.0 | 0.00 | 0.00 | 0.00 | 48 | 997.3 |
| 20260504210438 | 59 | 318 | 3.0 | 6.0 | 0.00 | 0.00 | 0.00 | 47 | 997.0 |
| 20260504205935 | 58 | 252 | 10.0 | 11.0 | 0.00 | 0.00 | 0.00 | 46 | 996.9 |
| 20260504205433 | 59 | 243 | 9.0 | 11.0 | 0.00 | 0.00 | 0.00 | 47 | 996.7 |
| 20260504204931 | 59 | 254 | 9.0 | 11.0 | 0.00 | 0.00 | 0.00 | 46 | 996.9 |
| 20260504204429 | 59 | 268 | 5.0 | 6.0 | 0.00 | 0.00 | 0.00 | 50 | 996.9 |
| 20260504203928 | 59 | 325 | 3.0 | 3.0 | 0.00 | 0.00 | 0.00 | 49 | 996.8 |
| 20260504203425 | 59 | 271 | 5.0 | 6.0 | 0.00 | 0.00 | 0.00 | 47 | 996.7 |
| 20260504202921 | 59 | 285 | 6.0 | 7.0 | 0.00 | 0.00 | 0.00 | 48 | 996.6 |
| 20260504202418 | 59 | 273 | 6.0 | 7.0 | 0.00 | 0.00 | 0.00 | 51 | 996.7 |
| 20260504201915 | 59 | 266 | 4.0 | 6.0 | 0.00 | 0.00 | 0.00 | 46 | 996.6 |
| 20260504201412 | 59 | 348 | 4.0 | 8.0 | 0.00 | 0.00 | 0.00 | 48 | 996.9 |
| 20260504200909 | 59 | 353 | 3.0 | 3.0 | 0.00 | 0.00 | 0.00 | 48 | 996.5 |
| 20260504200406 | 59 | 332 | 3.0 | 3.0 | 0.00 | 0.00 | 0.00 | 51 | 996.5 |
| 20260504195903 | 59 | 344 | 3.0 | 3.0 | 0.00 | 0.00 | 0.00 | 50 | 996.9 |
| 20260504195358 | 59 | 295 | 3.0 | 3.0 | 0.00 | 0.00 | 0.00 | 49 | 996.6 |
| 20260504194855 | 60 | 232 | 7.0 | 9.0 | 0.00 | 0.00 | 0.00 | 48 | 996.7 |
| 20260504194351 | 60 | 305 | 4.0 | 5.0 | 0.00 | 0.00 | 0.00 | 50 | 996.3 |
| 20260504193847 | 59 | 272 | 5.0 | 6.0 | 0.00 | 0.00 | 0.00 | 49 | 996.5 |
| 20260504193344 | 60 | 311 | 3.0 | 5.0 | 0.00 | 0.00 | 0.00 | 50 | 996.4 |
| 20260504192843 | 60 | 353 | 2.0 | 3.0 | 0.00 | 0.00 | 0.00 | 51 | 996.6 |
| 20260504192341 | 59 | 4 | 2.0 | 2.0 | 0.00 | 0.00 | 0.00 | 51 | 996.4 |
| 20260504191839 | 59 | 310 | 5.0 | 6.0 | 0.00 | 0.00 | 0.00 | 50 | 996.5 |
| 20260504191337 | 59 | 308 | 3.0 | 5.0 | 0.00 | 0.00 | 0.00 | 52 | 996.3 |
| 20260504190832 | 60 | 321 | 3.0 | 5.0 | 0.00 | 0.00 | 0.00 | 49 | 996.2 |
| 20260504190328 | 60 | 235 | 6.0 | 8.0 | 0.00 | 0.00 | 0.00 | 49 | 996.1 |
| 20260504185825 | 60 | 329 | 2.0 | 3.0 | 0.00 | 0.00 | 0.00 | 45 | 996.1 |
| 20260504185322 | 60 | 249 | 5.0 | 7.0 | 0.00 | 0.00 | 0.00 | 48 | 996.1 |
| 20260504184818 | 59 | 349 | 3.0 | 3.0 | 0.00 | 0.00 | 0.00 | 47 | 995.8 |
| 20260504184314 | 60 | 352 | 1.0 | 1.0 | 0.00 | 0.00 | 0.00 | 46 | 996.3 |
| 20260504183809 | 60 | 231 | 3.0 | 7.0 | 0.00 | 0.00 | 0.00 | 47 | 996.3 |
| 20260504183307 | 60 | 338 | 2.0 | 2.0 | 0.00 | 0.00 | 0.00 | 47 | 996.1 |
| 20260504182805 | 60 | 328 | 3.0 | 5.0 | 0.00 | 0.00 | 0.00 | 49 | 996.2 |
| 20260504182304 | 60 | 306 | 7.0 | 9.0 | 0.00 | 0.00 | 0.00 | 48 | 996.0 |
| 20260504181759 | 61 | 343 | 2.0 | 2.0 | 0.00 | 0.00 | 0.00 | 45 | 996.2 |
| 20260504181256 | 60 | 336 | 2.0 | 2.0 | 0.00 | 0.00 | 0.00 | 43 | 995.7 |
| 20260504180755 | 60 | 223 | 9.0 | 10.0 | 0.00 | 0.00 | 0.00 | 44 | 995.8 |
| 20260504180253 | 61 | 212 | 7.0 | 9.0 | 0.00 | 0.00 | 0.00 | 42 | 996.0 |
| 20260504175751 | 61 | 263 | 5.0 | 8.0 | 0.00 | 0.00 | 0.00 | 45 | 996.1 |
| 20260504175247 | 61 | 239 | 7.0 | 8.0 | 0.00 | 0.00 | 0.00 | 46 | 996.2 |
| 20260504174745 | 62 | 257 | 9.0 | 13.0 | 0.00 | 0.00 | 0.00 | 47 | 996.0 |
| 20260504174243 | 62 | 252 | 4.0 | 5.0 | 0.00 | 0.00 | 0.00 | 46 | 995.7 |
| 20260504173739 | 62 | 229 | 4.0 | 6.0 | 0.00 | 0.00 | 0.00 | 45 | 995.6 |
| 20260504173236 | 63 | 259 | 7.0 | 9.0 | 0.00 | 0.00 | 0.00 | 47 | 995.6 |
| 20260504172733 | 62 | 316 | 2.0 | 2.0 | 0.00 | 0.00 | 0.00 | 51 | 995.3 |
| 20260504172230 | 61 | 263 | 5.0 | 8.0 | 0.00 | 0.00 | 0.00 | 52 | 995.3 |
| 20260504171726 | 60 | 255 | 9.0 | 10.0 | 0.00 | 0.00 | 0.00 | 51 | 995.5 |
| 20260504171223 | 60 | 337 | 4.0 | 6.0 | 0.00 | 0.00 | 0.00 | 54 | 995.5 |
| 20260504170720 | 60 | 321 | 1.0 | 2.0 | 0.00 | 0.00 | 0.00 | 58 | 995.6 |
| 20260504170217 | 60 | 280 | 3.0 | 3.0 | 0.00 | 0.00 | 0.00 | 59 | 995.4 |
| 20260504160136 | 62 | 345 | 5.0 | 7.0 | 0.00 | 0.00 | 0.00 | 55 | 995.2 |
| 20260504151103 | 59 | 331 | 3.0 | 3.0 | 0.00 | 0.00 | 0.00 | 55 | 994.8 |
| 20260504150601 | 59 | 258 | 6.0 | 8.0 | 0.00 | 0.00 | 0.00 | 53 | 995.1 |
| 20260504141026 | 59 | 304 | 7.0 | 9.0 | 0.00 | 0.00 | 0.00 | 50 | 994.4 |
| 20260504140523 | 60 | 235 | 9.0 | 11.0 | 0.00 | 0.00 | 0.00 | 51 | 994.3 |
| 20260504130447 | 56 | 269 | 7.0 | 9.0 | 0.00 | 0.00 | 0.00 | 52 | 994.4 |
| 20260504110334 | 51 | 45 | 3.0 | 3.0 | 0.00 | 0.00 | 0.00 | 55 | 996.4 |